Powrót do katalogu

STARLINK-33713

AktywnyŁącznośćVLEO
NORAD 63479·PAYLOAD·🇺🇸 United States

Wystrzelony Apr 6, 2025 z Cape Canaveral Space Force Station

Loading…

Następne Przeloty (najbliższe 24 godziny)

TLE

ŚwieżeSource: CelesTrak SupGP

Epoka: Sep 15, 2026, 03:13 UTC

1 63479C 25070V   26258.13451389 -.00014754  00000+0 -53451-3 0  2581
2 63479  43.0029 266.2086 0001380 267.7817  37.4132 15.27578600    11

Śledź STARLINK-33713 w czasie rzeczywistym z AllMySat

Download on the App Store